Regional Weather Roundup
Issued by NWS

Home | Current Version | Previous Version | Graphics & Text | Print | Product List | Glossary On
Versions: 1 2 3 4 5 6 7 8 9 10 11 12 13 14 15 16 17 18 19 20 21 22 23 24 25 26 27 28 29 30 31 32 33 34 35 36 37 38 39 40 41 42 43 44 45 46 47 48 49 50
000
ASUS43 KMKX 300821
RWRWI

WISCONSIN REGIONAL WEATHER ROUNDUP
NATIONAL WEATHER SERVICE MILWAUKEE/SULLIVAN WI
300 AM CDT SAT AUG 30 2014

NOTE: "FAIR" INDICATES FEW OR NO CLOUDS BELOW 12,000 FEET WITH NO
SIGNIFICANT WEATHER AND/OR OBSTRUCTIONS TO VISIBILITY.

WIZ001-002-006>008-014>016-023>028-300900-
NORTHWEST WISCONSIN

CITY           SKY/WX    TMP DP  RH WIND       PRES   REMARKS
SUPERIOR ARPT  CLOUDY    61  61  99 CALM      29.79S
ASHLAND        CLOUDY    62  60  93 NE6       29.80S
HAYWARD        LGT RAIN  64  63  96 CALM      29.78S
SIREN          LGT RAIN  64  63  97 N5        29.78S
RICE LAKE      RAIN      64  63  94 CALM      29.77S
LADYSMITH      CLOUDY    65  64  97 SE6       29.79F FOG
EAU CLAIRE     LGT RAIN  67  66  97 NE3       29.74F
MENOMONIE      LGT RAIN  66  66  98 CALM      29.75R
NEW RICHMOND   RAIN      65  65 100 CALM      29.76F
OSCEOLA        RAIN      66  66 100 N3        29.79S
$$

WIZ003>005-009-010-017-018-300900-
NORTH CENTRAL WISCONSIN

CITY           SKY/WX    TMP DP  RH WIND       PRES   REMARKS
WOODRUFF       DRIZZLE   65  63  94 S3          N/A
RHINELANDER    LGT RAIN  63  63 100 S3        29.80F
EAGLE RIVER    LGT RAIN  63  63 100 CALM      29.79F
LAND O LAKES   DRIZZLE   64  64  99 CALM      29.81F
PHILLIPS       LGT RAIN  63  63 100 CALM      29.78F
TOMAHAWK       RAIN      64  63  97 CALM      29.79F
MEDFORD        LGT RAIN  64  64  99 CALM      29.77F
MERRILL        RAIN      65  65 100 SE5       29.78F
$$

WIZ029-030-035-036-043>047-300900-
CENTRAL WISCONSIN

CITY           SKY/WX    TMP DP  RH WIND       PRES   REMARKS
WAUSAU         LGT RAIN  65  65 100 E3        29.75F FOG
MOSINEE        LGT RAIN  64  64 100 NE6       29.77F
MARSHFIELD     LGT RAIN  66  65  96 E6        29.75F FOG
STEVENS POINT  RAIN      64  64  99 E6        29.76F
WAUPACA        HVY RAIN  68  67  94 E5        29.77F
WAUTOMA        CLOUDY    68  67  96 VRB5      29.76F
WISC RAPIDS    LGT RAIN  67  66  97 CALM      29.77R FOG
CAMP DOUGLAS   CLOUDY    68  68 100 E5        29.74F
$$

WIZ011>013-019>022-031-037>040-048>050-300900-
NORTHEAST WISCONSIN

CITY           SKY/WX    TMP DP  RH WIND       PRES   REMARKS
ANTIGO         LGT RAIN  63  63 100 CALM      29.79F
STURGEON BAY   CLOUDY    70  66  88 CALM      29.78F
GREEN BAY      LGT RAIN  68  66  93 N6        29.77F
MANITOWOC      CLOUDY    70  68  93 S10       29.78F
APPLETON       LGT RAIN  68  64  88 NE8       29.78F
CLINTONVILLE   CLOUDY    64  64 100 E5        29.77F
OSHKOSH        LGT RAIN  72  69  90 SW8       29.77F
$$

WIZ032>034-041-042-053>061-300900-
SOUTHWEST WISCONSIN

CITY           SKY/WX    TMP DP  RH WIND       PRES   REMARKS
LA CROSSE      LGT RAIN  70  67  90 NW5       29.73F FOG
SPARTA         HVY RAIN  67  66  97 W3        29.75S
VIROQUA        CLOUDY    67  67 100 SW7       29.76S
BOSCOBEL       MOCLDY    70  67  90 SW3       29.77R
PRAIRIE DU CHI CLOUDY    69  66  91 CALM      29.76S
PLATTEVILLE    CLOUDY    71  69  95 S9        29.80S
$$

WIZ056-057-062-063-064-067-068-300900-
SOUTH CENTRAL WISCONSIN

CITY           SKY/WX    TMP DP  RH WIND       PRES   REMARKS
BARABOO/DELLS  CLOUDY    70  67  90 S6        29.76S
LONE ROCK      CLOUDY    75  68  78 SW6       29.77R
WATERTOWN      CLOUDY    71  70  99 S7        29.79S
MADISON        MOCLDY    72  68  87 S10       29.78S
MIDDLETON      CLOUDY    72  70  94 SW7       29.78F
MONROE         CLOUDY    70  68  94 SW12      29.80S
JANESVILLE     CLOUDY    72  68  88 S9        29.80S
$$

WIZ051-052-058>065-066-070>072-300900-
SOUTHEAST WISCONSIN

CITY           SKY/WX    TMP DP  RH WIND       PRES   REMARKS
MILWAUKEE      CLOUDY    74  68  81 S9        29.81F
WAUKESHA       CLOUDY    70  68  94 S6        29.82S
MILWAUKEE/TIMM CLOUDY    72  66  83 S6        29.81S
RACINE         CLOUDY    73  68  84 S6        29.82F
BURLINGTON     CLOUDY    70  67  92 S5        29.81S
KENOSHA        CLOUDY    74  69  85 S8        29.82F
FOND DU LAC    HVY RAIN  72  68  87 S13       29.77F FOG
SHEBOYGAN      CLOUDY    71  68  90 S9        29.79F FOG
WEST BEND      CLOUDY    72  64  78 S7        29.80S
JUNEAU         CLOUDY    71  69  93 S6        29.79F
$$

LSZ147-162-300900-
LAKE SUPERIOR

STATION/POSITION TIME  TEMP    WIND        PRES    WAVE
                       AIR SEA DIR/SP/G            HT/PER
                 (UTC) (F)     (DEG/KT/KT) (MB)    (FT/S)
W MID LAKE BUOY  0750   58 58   90/  4/  4 1008.7F   0
DEVILS ISLAND    0800   61      60/  6/  7 1008.9F
PORT WING        0740   62      CALM  /  1 1009.1R
SAXON HARBOR     0700   63      30/  5/  8 1009.1S
$$

LMZ867-665-643>646-300900-
LAKE MICHIGAN

STATION/POSITION TIME  TEMP    WIND        PRES    WAVE
                       AIR SEA DIR/SP/G            HT/PER
                 (UTC) (F)     (DEG/KT/KT) (MB)    (FT/S)
N MID LAKE BUOY  0750   69 65  190/ 16/ 17 1008.1F   4/ 6
NORTHPORT PIER   0700   70     170/  7/ 14 1009.1F
SISTER BAY       0726   72     200/ 10/ 12   N/A
ALGOMA LAKESHORE 0553          220/  7/  8   N/A
KEWAUNEE LAKESHO 0800   65     180/ 10/ 12 1007.3F
SHEBOYGAN LAKESH 0800   69 62  190/ 17/ 18 1008.6F
ATWATER BUOY     0800   69     160/ 10/ 12 1010.0F
MILWAUKEE LAKESH 0800   70     160/  6/  7   N/A
S MID LAKE BUOY  0750   72 69              1010.2F
KENOSHA   LAKESH 0800   71     180/ 12/ 13 1009.5F
$$

TC  - TEMPERATURE IN CELSIUS
VSB - VISIBILITY IN STATUTE MILES
WCI - WIND CHILL INDEX
HX  - HEAT INDEX




USA.gov is the U.S. government's official web portal to all federal, state and local government web resources and services.